Regional Weather Roundup
Issued by NWS Jackson, KY

Home | Current Version | Previous Version | Graphics & Text | Print | Product List | Glossary On
Versions: 1 2 3 4 5 6 7 8 9 10 11 12 13 14 15 16 17 18 19 20 21 22 23 24 25 26 27 28 29 30 31 32 33 34 35 36 37 38 39 40 41 42 43 44 45 46 47 48 49 50
000
ASUS43 KJKL 261110
RWRJKL

EAST KENTUCKY HOURLY WEATHER ROUNDUP
NATIONAL WEATHER SERVICE JACKSON KY
600 AM EST THU FEB 26 2015

NOTE: "FAIR" INDICATES FEW OR NO CLOUDS BELOW 12,000 FEET WITH
NO SIGNIFICANT WEATHER AND/OR OBSTRUCTIONS TO VISIBILITY.

* THESE REPORTS ARE NOT UNDER NWS QUALITY CONTROL AND MAY NOT
  REPORT WEATHER SUCH AS PRECIPITATION AND FOG.

KYZ079-080-083-085-087-088-110-112-115-119-120-261200
...EASTERN KENTUCKY...

CITY           SKY/WX    TMP DP  RH WIND       PRES   REMARKS
JACKSON        CLOUDY    28  24  85 N3        29.80R
LONDON         CLOUDY    30  24  78 N3        29.82R
SOMERSET*      CLOUDY    30  28  93 N5        29.86R WCI  25
MONTICELLO*    FLURRIES  30  28  92 N7        29.87R WCI  23
MIDDLESBORO*   CLOUDY    28  28 100 CALM      29.80R
HAZARD APT*    CLOUDY    28  28 100 CALM      29.80R
BLACK MTN*       N/A     21  21 100 N6          N/A  WCI  14
PIKEVILLE APT* FLURRIES  27  25  93 CALM      29.78R
BIG SANDY*     CLOUDY    28  26  89 N3        29.81R
MOREHEAD APT*  CLOUDY    27  18  69 NW5       29.86R WCI  21
$$

KYZ035-036-041-042-044-050-067-078-099-261200
...CENTRAL KENTUCKY...

CITY           SKY/WX    TMP DP  RH WIND       PRES   REMARKS
MT STERLING*   CLOUDY    27  21  80 N6        29.86R WCI  20
DANVILLE*      CLOUDY    28  21  74 N3        29.86R
RICHMOND*      CLOUDY    28  21  74 NW3       29.83S
LEXINGTON      CLOUDY    26  18  71 N7        29.86R WCI  18
FRANKFORT      PTCLDY    25  15  66 N8        29.87R WCI  16
$$

KYZ091>093-OHZ055-061-077-WVZ005-015-034-035-042-261200
...SOUTHERN OHIO/WEST VIRGINIA...

CITY           SKY/WX    TMP DP  RH WIND       PRES   REMARKS
COVINGTON      CLOUDY    22  12  65 N8        29.90R WCI  12
COLUMBUS       CLOUDY    16   7  67 N12       29.91R WCI   3
DAYTON         CLOUDY    17   6  62 N17       29.94R WCI   1
WILMINGTON     CLOUDY    16   7  67 N14       29.88R WCI   2
HUNTINGTON     CLOUDY    30  17  58 N5        29.83R WCI  25
CHARLESTON     FLURRIES  29  26  89 CALM      29.80S
PINEVILLE*     FLURRIES  31  31 100 MISG      29.80R
BECKLEY        LGT SNOW  26  22  84 CALM      29.73R FOG
BLUEFIELD      LGT SNOW  27  23  85 CALM      29.71R FOG
$$

VAZ002-007-008-TNZ017-027-036-066-071-261200
...SOUTHWEST VIRGINIA/EAST TENNESSEE...

CITY           SKY/WX    TMP DP  RH WIND       PRES   REMARKS
WISE*          CLOUDY    27  27 100 N3        29.71S
JONESVILLE*    MIX PCPN  27  27 100 CALM      29.78R
ABINGDON*      CLOUDY    31  29  91 E5        29.72S WCI  27
BRISTOL        CLOUDY    30  28  92 CALM      29.75S FOG
KNOXVILLE      CLOUDY    29  28  96 W3        29.78S FOG
OAK RIDGE      CLOUDY    31  29  92 W3        29.82R
CROSSVILLE     CLOUDY    28  24  85 NW5       29.79R WCI  23
NASHVILLE      MOCLDY    29  28  96 NW3       29.89R FOG
$$

...KEY TO REMARKS...
VSB - VISIBILITY IN MILES
WCI - WIND CHILL INDEX
HX  - HEAT INDEX

$$



USA.gov is the U.S. government's official web portal to all federal, state and local government web resources and services.